Lid_Strength_Index
2 2 2 2 2 2 2 2 2 2 2 2 2 2 2 2 2 2 2 3 3 3 2 2 2 2 1 3 3 -1 -3 -2 -1 0 1 2 4 4 5 5 5 7 6 6 5 5 5
2 2 2 2 3 3 2 2 2 2 2 2 2 2 2 3 3 3 3 3 3 3 3 2 1 1 2 5 -0 -1 2 0 0 1 1 2 3 2 4 5 6 5 6 6 5 5 5
2 2 2 2 2 3 3 2 2 2 2 2 3 3 3 3 3 3 3 3 3 3 2 1 1 0 2 3 -0 -1 0 1 -0 1 2 1 1 3 3 5 4 5 7 6 6 6 6
2 2 2 2 2 2 2 3 3 2 2 2 3 3 3 3 3 3 4 4 3 2 1 1 1 0 3 0 -1 -0 0 1 0 1 1 1 1 2 3 4 5 7 6 9 7 6 6
2 2 3 2 3 2 2 2 2 2 2 2 3 3 3 3 4 4 4 4 2 1 1 1 1 2 4 0 1 -0 0 2 2 2 2 2 2 3 3 6 8 7 9 9 8 6 6
2 3 3 2 3 3 3 3 2 2 3 3 3 3 4 4 4 4 4 4 1 1 0 -0 0 3 2 3 1 0 0 1 2 2 3 4 3 5 5 7 11 10 9 8 9 7 7
3 3 3 3 3 3 3 3 3 3 3 3 3 3 4 4 4 5 4 0 3 3 2 3 3 3 3 2 0 1 1 2 2 3 5 4 6 7 6 6 6 7 8 8 7 6 7
3 3 3 3 3 3 3 3 3 3 3 3 4 4 4 4 5 5 3 2 2 1 4 2 3 2 2 1 3 2 1 3 4 6 4 5 7 5 5 5 6 7 7 8 7 6 7
3 4 4 4 4 4 4 4 4 4 4 4 4 4 4 4 5 4 1 1 1 0 4 3 2 3 2 2 4 3 2 3 4 6 5 7 6 5 5 6 7 7 7 7 8 6 5
4 4 4 5 5 4 4 4 4 4 4 4 4 4 4 5 5 1 1 -0 0 0 7 6 5 3 2 2 4 2 1 3 4 6 5 6 4 5 6 6 6 8 6 6 7 7 10
4 4 4 4 4 4 5 5 4 4 4 4 4 5 5 6 3 2 1 -0 -0 1 12 6 5 1 2 4 4 3 1 3 5 6 5 6 6 6 7 6 5 7 5 6 7 7 8
4 4 4 4 4 4 4 5 5 5 5 5 5 6 6 5 4 1 0 1 2 8 11 7 4 5 5 5 4 4 4 3 3 5 6 6 4 5 5 5 5 5 6 6 7 8 11
4 4 4 4 4 4 4 4 5 5 5 6 6 7 6 2 2 1 0 2 8 10 6 7 6 5 6 7 6 5 5 6 7 9 8 7 7 5 5 6 5 6 7 11 12 12 12
4 3 3 4 4 4 4 4 4 5 5 6 7 7 5 1 -0 1 2 5 10 8 7 5 6 6 7 6 6 6 6 7 6 6 7 8 9 7 5 6 7 7 7 10 13 12 11
3 3 4 4 4 4 4 4 5 5 5 6 7 1 0 0 0 1 4 8 8 7 6 6 6 7 7 6 6 6 6 7 6 5 8 8 8 5 5 5 5 7 8 6 9 8 10
4 4 3 4 4 4 4 4 4 5 5 6 1 1 1 0 -0 1 5 9 7 5 5 5 8 7 8 7 7 7 7 5 6 5 4 6 9 6 6 5 5 6 5 9 8 12 13
5 4 4 4 4 4 4 4 5 5 6 6 1 3 1 -1 -0 4 7 7 6 4 4 6 6 7 7 7 6 7 7 5 5 5 4 5 7 7 6 7 7 7 7 7 7 9 11
5 5 5 4 5 4 4 4 5 6 6 4 2 5 0 -0 5 5 6 6 8 5 4 5 5 6 7 6 7 7 7 6 5 4 6 5 6 9 8 5 5 5 7 7 10 10 9
5 5 5 5 5 5 4 5 5 6 6 2 4 3 0 1 7 6 5 5 5 5 5 6 6 5 5 6 8 7 6 5 5 5 6 5 7 10 9 7 6 7 6 6 7 7 9
5 5 5 5 4 4 4 5 5 6 6 3 3 6 4 3 3 5 6 6 7 5 5 5 5 5 6 7 6 7 7 5 5 4 5 4 7 8 10 8 8 9 7 6 7 9 9
5 5 5 4 4 4 4 4 5 6 6 2 3 5 4 6 6 5 5 6 7 7 5 5 6 6 7 8 8 7 6 6 5 5 5 5 8 7 7 7 7 8 8 8 8 7 9
5 5 4 4 4 4 4 4 5 6 7 2 4 5 4 5 5 6 8 6 7 6 6 6 7 6 6 8 7 8 7 7 7 5 6 5 9 7 9 7 7 8 7 7 7 7 7
5 5 5 4 5 4 4 4 5 6 5 3 3 2 4 8 6 6 6 6 6 6 6 5 5 6 7 6 5 5 4 5 5 6 7 7 8 9 11 8 8 10 8 7 7 6 6
5 5 5 5 5 5 5 4 5 5 6 3 3 3 5 6 6 6 6 6 7 6 7 5 5 6 4 3 3 4 4 4 4 5 5 7 8 9 11 9 15 8 5 5 6 6 5
5 5 5 5 5 5 5 4 4 4 5 2 3 4 5 7 6 6 6 6 6 5 6 6 5 4 3 4 6 8 7 7 6 5 5 5 7 10 12 12 10 8 6 7 7 7 5
6 6 6 6 5 5 5 4 4 4 5 3 3 3 4 7 6 6 7 7 7 7 6 6 4 3 4 5 7 10 11 9 9 7 5 5 6 9 10 13 14 8 5 5 5 10 5
6 6 6 5 5 4 4 4 5 5 5 4 3 3 4 6 5 5 7 7 6 6 7 6 5 5 3 7 8 9 9 7 10 10 9 8 8 10 10 12 10 6 5 5 11 10 6
6 5 5 5 5 5 5 5 5 5 5 5 3 3 5 6 6 5 5 6 5 5 6 5 5 5 6 8 8 8 8 7 8 7 8 9 10 10 10 11 12 6 6 8 7 5 5
5 5 5 5 5 5 5 5 5 5 5 5 4 2 3 5 5 3 3 3 3 3 4 4 5 5 5 7 7 7 9 7 8 10 6 10 7 9 8 12 7 5 5 4 4 5 5